This demonstration page uses our WeatherBlox Daily Observations layout. Learn more.

Left ArrowRight Arrow

39.51506, -84.39828

Hourly Observations for January 11, 2015

Temp ( °F °C ) Dew Point ( °F °C ) Humidity (%) Winds ( mph kmh ) Pressure ( in mb ) Visibility ( mi km ) Precip ( " mm )
12:15 am 00:15 Clear 23 -5 4 -15.6 44 44 SSW 5 7 30.50 1033 10 16 0.00 0.00
12:35 am 00:35 Mostly Cloudy 23 -5 5 -14.9 46 46 SSW 3 6 30.50 1033 10 16 0.00 0.00
12:55 am 00:55 Cloudy 23 -5 5 -15 46 46 S 3 6 30.50 1033 10 16 0.00 0.00
1:15 am 01:15 Partly Cloudy 23 -5 4 -15.3 45 45 S 5 7 30.50 1033 10 16 0.00 0.00
1:35 am 01:35 Partly Cloudy 24 -4.2 5 -14.9 43 43 SSW 9 15 30.50 1033 10 16 0.00 0.00
1:55 am 01:55 Cloudy 24 -4.2 3 -15.9 40 40 SSW 9 15 30.50 1033 10 16 0.00 0.00
2:15 am 02:15 Cloudy 24 -4.2 5 -14.9 43 43 SSW 8 13 30.50 1033 10 16 0.00 0.00
2:35 am 02:35 Cloudy 24 -4.2 4 -15.5 41 41 S 8 13 30.50 1033 10 16 0.00 0.00
2:55 am 02:55 Cloudy 24 -4.2 5 -15 43 43 S 9 15 30.50 1033 10 16 0.00 0.00
3:15 am 03:15 Mostly Cloudy 24 -4.2 6 -14.6 45 45 S 7 11 30.50 1033 10 16 0.00 0.00
3:35 am 03:35 Mostly Cloudy 24 -4.2 6 -14.6 45 45 S 7 11 30.48 1032 10 16 0.00 0.00
3:55 am 03:55 Mostly Cloudy 23 -5 5 -14.8 47 47 SSW 6 9 30.48 1032 10 16 0.00 0.00
4:15 am 04:15 Cloudy 24 -4.2 6 -14.3 46 46 SSW 6 9 30.48 1032 10 16 0.00 0.00
4:35 am 04:35 Cloudy 25 -4.1 7 -14 46 46 SSW 6 9 30.48 1032 10 16 0.00 0.00
4:55 am 04:55 Cloudy 25 -4 7 -14 46 46 Calm 30.50 1033 10 16 0.00 0.00
5:15 am 05:15 Cloudy 24 -4.2 8 -13.6 48 48 Calm 30.50 1033 10 16 0.00 0.00
5:35 am 05:35 Cloudy 25 -4.1 7 -13.8 47 47 Calm 30.50 1033 10 16 0.00 0.00
5:55 am 05:55 Cloudy 24 -4.2 9 -12.9 51 51 Calm 30.50 1033 10 16 0.00 0.00
6:15 am 06:15 Cloudy 26 -3.2 11 -11.6 53 53 Calm 30.45 1031 10 16 0.00 0.00
6:35 am 06:35 Cloudy 27 -2.8 12 -11.2 53 53 Calm 30.45 1031 10 16 0.00 0.00
6:55 am 06:55 Cloudy 27 -2.8 11 -11.4 52 52 Calm 30.45 1031 10 16 0.00 0.00
7:15 am 07:15 Cloudy 27 -2.8 11 -11.5 52 52 SSW 3 6 30.48 1032 10 16 0.00 0.00
7:35 am 07:35 Cloudy 29 -1.5 13 -10.6 50 50 S 3 6 30.48 1032 10 16 0.00 0.00
7:55 am 07:55 Cloudy 29 -1.5 12 -10.9 49 49 S 5 7 30.48 1032 10 16 0.00 0.00
8:15 am 08:15 Cloudy 29 -1.5 11 -11.4 47 47 S 5 7 30.45 1031 10 16 0.00 0.00
8:35 am 08:35 Cloudy 29 -1.5 13 -10.7 50 50 SSE 5 7 30.45 1031 10 16 0.00 0.00
8:55 am 08:55 Cloudy 29 -1.5 13 -10.7 50 50 S 5 7 30.45 1031 10 16 0.00 0.00
9:15 am 09:15 Cloudy 29 -1.5 11 -11.6 46 46 S 5 7 30.45 1031 10 16 0.00 0.00
9:35 am 09:35 Cloudy 29 -1.5 11 -11.7 46 46 S 3 6 30.45 1031 10 16 0.00 0.00
9:55 am 09:55 Cloudy 29 -1.5 11 -11.6 46 46 SSW 5 7 30.48 1032 10 16 0.00 0.00
10:15 am 10:15 Cloudy 31 -0.8 10 -12.1 42 42 SSW 7 11 30.48 1032 10 16 0.00 0.00
10:35 am 10:35 Cloudy 32 0 11 -11.4 42 42 SSW 5 7 30.48 1032 10 16 0.00 0.00
10:55 am 10:55 Cloudy 32 0 11 -11.7 41 41 SSW 7 11 30.48 1032 10 16 0.00 0.00
11:15 am 11:15 Cloudy 33 0.6 13 -10.7 43 43 SSW 8 13 30.45 1031 10 16 0.00 0.00
11:35 am 11:35 Cloudy 34 1.2 13 -10.5 42 42 SSW 7 11 30.45 1031 10 16 0.00 0.00
11:55 am 11:55 Cloudy 34 1.2 14 -10.1 43 43 SSW 8 13 30.45 1031 10 16 0.00 0.00
12:15 pm 12:15 Cloudy 34 1.2 15 -9.3 46 46 SSW 6 9 30.42 1030 10 16 0.00 0.00
12:35 pm 12:35 Cloudy 34 1.2 16 -9.1 47 47 SSW 7 11 30.42 1030 10 16 0.00 0.00
12:55 pm 12:55 Cloudy 34 1.2 14 -10.1 43 43 SSW 7 11 30.42 1030 10 16 0.00 0.00
1:15 pm 13:15 Cloudy 34 1.2 14 -10.1 43 43 SSW 6 9 30.42 1030 10 16 0.00 0.00
1:35 pm 13:35 Cloudy 34 1.2 13 -10.5 42 42 SSW 6 9 30.42 1030 10 16 0.00 0.00
1:55 pm 13:55 Cloudy 34 1.2 13 -10.6 41 41 S 6 9 30.39 1029 10 16 0.00 0.00
2:15 pm 14:15 Cloudy 34 1.2 14 -10.1 43 43 S 5 7 30.39 1029 10 16 0.00 0.00
2:35 pm 14:35 Cloudy 36 2 15 -9.4 43 43 S 3 6 30.39 1029 10 16 0.00 0.00
2:55 pm 14:55 Cloudy 37 2.6 15 -9.2 42 42 Calm 30.39 1029 10 16 0.00 0.00
3:15 pm 15:15 Cloudy 37 2.6 15 -9.4 41 41 S 5 7 30.39 1029 10 16 0.00 0.00
3:35 pm 15:35 Cloudy 37 2.6 14 -9.9 40 40 S 5 7 30.39 1029 10 16 0.00 0.00
3:55 pm 15:55 Cloudy 37 2.6 13 -10.6 37 37 S 7 11 30.39 1029 10 16 0.00 0.00
4:15 pm 16:15 Cloudy 37 2.6 14 -9.9 40 40 S 6 9 30.39 1029 10 16 0.00 0.00
4:35 pm 16:35 Cloudy 37 2.6 15 -9.5 41 41 SSE 3 6 30.39 1029 10 16 0.00 0.00
4:55 pm 16:55 Cloudy 37 2.6 15 -9.4 41 41 S 3 6 30.39 1029 10 16 0.00 0.00
5:15 pm 17:15 Cloudy 37 2.7 15 -9.2 42 42 Calm 30.39 1029 10 16 0.00 0.00
5:35 pm 17:35 Cloudy 37 2.6 19 -7.2 49 49 S 3 6 30.39 1029 10 16 0.00 0.00
5:55 pm 17:55 Cloudy 37 2.6 23 -5 58 58 SSW 6 9 30.39 1029 10 16 0.00 0.00
6:15 pm 18:15 Cloudy with Light Snow 37 2.6 26 -3.6 64 64 SSW 3 6 30.42 1030 7 11 0.00 0.00
6:35 pm 18:35 Cloudy 36 2.4 27 -2.6 70 70 SW 5 7 30.42 1030 10 16 0.00 0.00
6:55 pm 18:55 Cloudy 34 1.2 27 -2.6 76 76 WSW 3 6 30.42 1030 10 16 0.00 0.00
7:15 pm 19:15 Cloudy 35 1.6 28 -2.5 74 74 Calm 30.42 1030 10 16 0.00 0.00
7:35 pm 19:35 Cloudy with Light Snow 36 2 27 -2.6 72 72 Calm 30.42 1030 10 16 0.00 0.00
7:55 pm 19:55 Cloudy with Light Snow 35 1.7 29 -1.8 78 78 S 5 7 30.42 1030 5 8 0.00 0.00
8:15 pm 20:15 Cloudy with Light Snow 36 2 30 -1 81 81 SSW 7 11 30.42 1030 4 6 0.00 0.00
8:35 pm 20:35 Cloudy with Light Snow 35 1.6 30 -1 83 83 SSW 8 13 30.42 1030 5 8 0.00 0.00
8:55 pm 20:55 Cloudy with Light Snow 34 1.2 30 -1 85 85 SSW 6 9 30.42 1030 5 8 0.00 0.00
9:15 pm 21:15 Cloudy with Light Snow 34 1.2 30 -0.9 86 86 S 6 9 30.39 1029 5 8 0.00 0.00
9:35 pm 21:35 Cloudy 36 2 32 -0.2 86 86 S 6 9 30.39 1029 7 11 0.00 0.00
9:55 pm 21:55 Cloudy 36 2.3 32 0.1 86 86 S 6 9 30.36 1028 7 11 0.00 0.00
10:15 pm 22:15 Cloudy 37 2.6 33 0.3 85 85 SSW 7 11 30.36 1028 7 11 0.00 0.00
10:35 pm 22:35 Cloudy with Light Snow 37 2.6 33 0.3 85 85 S 3 6 30.36 1028 5 8 0.00 0.00
10:55 pm 22:55 Cloudy with Light Snow 37 2.6 33 0.3 85 85 S 3 6 30.36 1028 5 8 0.00 0.00
11:15 pm 23:15 Cloudy with Light Snow 37 2.6 33 0.5 86 86 S 6 9 30.36 1028 5 8 0.00 0.00
11:35 pm 23:35 Cloudy with Light Snow 37 2.6 33 0.3 85 85 S 3 6 30.33 1027 7 11 0.00 0.00
11:55 pm 23:55 Cloudy 37 2.6 33 0.3 85 85 SSW 5 7 30.33 1027 7 11 0.00 0.00

Powered by AerisWeather